Вернуться в каталог

ROBUSTA-3A

АктивенЛюбительское радиоVLEO
NORAD 60243·PAYLOAD·🇫🇷 France

Запущен Jul 9, 2024 с Guiana Space Centre

Loading…

Ближайшие Пролёты (ближайшие 24 часа)

TLE

СвежийSource: Space-Track

Эпоха: Sep 14, 2026, 12:49 UTC

1 60243U 24128J   26257.53451726  .00004225  00000-0  25053-3 0  9998
2 60243  61.9848 252.0204 0028657 146.1447 214.1486 15.12709545119931

Отслеживайте ROBUSTA-3A в реальном времени с AllMySat

Download on the App Store